Regional Weather Roundup
Issued by NWS Charleston, SC

Home | Current Version | Previous Version | Text Only | Print | Product List | Glossary On
Versions: 1 2 3 4 5 6 7 8 9 10 11 12 13 14 15 16 17 18 19 20 21 22 23 24 25 26 27 28 29 30 31 32 33 34 35 36 37 38 39 40 41 42 43 44 45 46 47 48 49 50
000
ASUS42 KCHS 041926
RWRCHS

REGIONAL WEATHER ROUNDUP
NATIONAL WEATHER SERVICE CHARLESTON SC
200 PM EST WED MAR 04 2015

NOTE: "FAIR" INDICATES FEW OR NO CLOUDS BELOW 12,000 FEET WITH NO
SIGNIFICANT WEATHER AND/OR OBSTRUCTIONS TO VISIBILITY.

NOT ALL STATIONS ARE QUALITY CONTROLLED BY THE NATIONAL
WEATHER SERVICE. USE DATA WITH CAUTION...ESPECIALLY
DEWPOINT OBSERVATIONS.

SCZ027-030-031-034>040-042>050-042000-
...SOUTHEAST SOUTH CAROLINA...

CITY           SKY/WX    TMP DP  RH WIND       PRES   REMARKS
N CHARLESTON   MOSUNNY   80  60  50 SW20      30.03F
WATERFRONT PRK   N/A     70 N/A N/A SW16G23     N/A
MOUNT PLEASANT FAIR      75  63  64 S20G25    30.03F
PINOPOLIS      NOT AVBL
MONCKS CORNER  CLOUDY    81  61  50 SW9       30.00F
SUMMERVILLE    FAIR      81  63  54 SW10G17   30.01F
BEAUFORT MCAS  PTSUNNY   80  67  64 S13       30.03F
BEAUFORT ARPT  FAIR      73  66  78 S10G17    30.03F
HILTON HEAD IS SUNNY     75  64  69 S10       30.07F
WALTERBORO     MOCLDY    81  63  54 W10G18    30.01F
ALLENDALE      FAIR      81  61  50 SW10      29.99F

...SOUTHERN MIDLANDS AND PEE DEE...

CITY           SKY/WX    TMP DP  RH WIND       PRES   REMARKS
GEORGETOWN     NOT AVBL
KINGSTREE      NOT AVBL
ORANGEBURG     PTSUNNY   79  58  48 SW22G29   29.99F
BARNWELL       FAIR      82  61  47 W16G26    30.00F
AIKEN          MOCLDY    77  59  53 SW21G31   30.04F
MANNING        FAIR      79  48  34 SW15G25   29.99F
COLUMBIA       MOSUNNY   81  58  45 W26G33    29.97F
SUMTER         NOT AVBL
FLORENCE       PTSUNNY   78  60  53 SW23G32   29.98F
MYRTLE BEACH   MOSUNNY   72  61  68 S18       30.04F
N MYRTLE BEACH MOSUNNY   64  58  80 SW23G29   30.01F

$$

GAZ063-065-086>088-099>101-113>116-118-119-134>141-150-042000-
...SOUTHEAST GEORGIA...

CITY           SKY/WX    TMP DP  RH WIND       PRES   REMARKS
SAVANNAH ARPT  PTSUNNY   83  59  44 W17       30.04F
HUNTER AAF     NOT AVBL
FORT STEWART   NOT AVBL
STATESBORO     PTSUNNY   79  60  52 W10G20    30.02F
SYLVANIA       PTCLDY    80  61  52 SW10G18   30.03F
CLAXTON        MOCLDY    79  63  57 W8        30.03F

...CSRA...CENTRAL AND FAR SOUTHEAST GEORGIA...

CITY           SKY/WX    TMP DP  RH WIND       PRES   REMARKS
THOMSON        MOSUNNY   76  64  66 SW15G23   30.04F
AUGUSTA-BUSH   PTSUNNY   78  59  51 W20G31    30.00F
AUGUSTA-DANIEL PTSUNNY   76  60  57 W13G23    30.01F
SWAINSBORO     CLOUDY    81  45  28 W18G24    30.03F
VIDALIA        MOSUNNY   81  59  47 SW18G25   30.04F
EASTMAN        MOCLDY    79  62  55 SW10      30.06F
HAZLEHURST     FAIR      82  61  49 SW9G17    30.03F
ALMA           PTSUNNY   81  58  45 SW16G24   30.04F
WAYCROSS       MOSUNNY   86  64  46 SW17      30.04F
JESUP          FAIR      84  63  48 SW9G18    30.04F
BAXLEY         PTSUNNY   82  59  44 SW9G21    30.04F
BRUNSWICK      PTSUNNY   82  57  42 SW12G18   30.05F
SAINT SIMONS   MOSUNNY   70  62  76 S12G21    30.06F

$$

SCZ027-028-034-036>038-045-046-048>050-GAZ119-141-042000-
...LAKE AND SUPPLEMENTAL COASTAL OBSERVATIONS...

STATION/POSITION TIME  TEMP    WIND        PRES    WAVE   SWELL
                       AIR SEA DIR/SP/G            HT/PER HT/PER/DIR
                 (UTC) (F)     (DEG/KT/KT) (MB)    (FT/S) (FT/S/D)
UPR LAKE MARION  NOT AVBL
WINYAH BAY       1845   77     200/ 14     1016.0F
LAKE MURRAY      1900   72     230/ 12/ 21 1014.6F
ACE BASIN NERRS  1845   72     170/  3     1017.0F
FORT PULASKI     1900   71 52  190/ 10/ 17 1018.0F
SAPELO ISLAND    1900   76     170/ 14     1017.0F

$$

ANZ835-935-AMZ111-154-330-350-352-354-370-450-454-472-042000-
...C-MAN AND BUOY OBSERVATIONS...

STATION/POSITION TIME  TEMP    WIND        PRES    WAVE   SWELL
                       AIR SEA DIR/SP/G            HT/PER HT/PER/DIR
                 (UTC) (F)     (DEG/KT/KT) (MB)    (FT/S) (FT/S/D)
BUOY 41004       1850   69 69  220/ 16/ 19 1017.8F   5/ 6   2/ 9
BUOY 41008       1850   59 54  180/ 10/ 12 1018.3F   3/ 8   2/ 90/ 8
FOLLY BEACH CMAN 1800   57     220/ 12/ 15 1019.2F
CAPERS NEARSHORE 1800   53     240/  8/ 10   N/A
FRIPP NEARSHORE  1800   55     190/ 10/ 12 1018.5F


STATION/POSITION TIME  TEMP    WIND        PRES    WAVE   SWELL
                       AIR SEA DIR/SP/G            HT/PER HT/PER/DIR
                 (UTC) (F)     (DEG/KT/KT) (MB)    (FT/S) (FT/S/D)
5E ST. MARYS GA  1821      56                N/A     2/ 9
FRYING PAN BUOY  1850   67 62  220/ 16/ 17 1018.4F   5/ 6   3/120/ 9
BUOY 41025       NOT AVBL
CAPE LOOKOUT NC  1800   59     230/ 11/ 14 1017.3F
BUOY 41002       1850   73 73  210/ 17/ 19 1021.2F   5/10   3/130/10
BUOY 41010       1820   74 75  170/ 14/ 17 1021.4F
ST AUGUSTINE FL  1900   64     170/  9/ 10 1019.4F


$$


USA.gov is the U.S. government's official web portal to all federal, state and local government web resources and services.